Location: Waltham Abbey
(51.6833°N, 0.0167°E)
Time: 05:13:28
(UTC+00:00)

Daily predictions for brighter satellites

Satellite Brightness Start Highest point End
(mag) Time Altitude Azimuth Time Altitude Azimuth Time Altitude Azimuth
Cosmos 2333 Rocket 4.1 00:04:54 17° E 00:04:54 17° E 00:07:53 10° ENE
ALOS 2 4.2 00:06:52 27° WNW 00:06:52 27° WNW 00:09:29 10° NNW
USA 215 3.9 00:01:00 10° ENE 00:06:02 40° ESE 00:06:02 40° ESE
Cosmos 1447 Rocket 4.3 00:08:01 82° SW 00:08:15 84° W 00:14:28 10° N
Cosmos 2360 Rocket 3.9 00:09:55 21° E 00:09:55 21° E 00:13:27 10° NE
Cosmos 2263 Rocket 3.3 00:06:45 10° NW 00:10:39 32° W 00:10:39 32° W
Lacrosse 4 Rocket 3.4 00:15:02 22° NE 00:15:02 22° NE 00:16:39 10° NE
Cosmos 1814 Rocket 4.3 00:14:29 62° NE 00:14:29 62° NE 00:18:51 10° NNE
Cosmos 2322 Rocket 3.3 00:19:32 31° E 00:19:32 31° E 00:23:46 10° NE
Cosmos 1891 Rocket 4.3 00:15:41 10° NNW 00:21:50 78° W 00:21:58 77° WSW
ATLAS 3B R/B 4.4 00:17:16 10° WNW 00:24:02 35° NNW 00:31:05 10° NE
NOSS 3-2 (C) 3.9 00:17:15 10° NW 00:24:31 83° SW 00:26:40 54° SSE
Cosmos 2034 Rocket 4.2 00:18:24 10° N 00:24:33 61° ENE 00:25:21 56° ESE
Cosmos 1513 Rocket 4.3 00:19:13 10° NNW 00:25:18 79° W 00:25:24 79° WSW
Cosmos 2219 Rocket 4.2 00:27:22 16° E 00:27:24 16° E 00:30:37 10° ENE
Cosmos 2058 Rocket 4.0 00:32:03 46° N 00:32:03 46° N 00:35:11 10° N
Cosmos 1844 3.7 00:27:49 10° NNW 00:33:37 81° ENE 00:33:46 80° E
SL-16 R/B 2.4 00:35:17 59° E 00:35:17 59° E 00:40:29 10° NE
H-2A R/B 3.4 00:38:40 10° N 00:41:37 33° NW 00:41:37 33° NW
USA 267 3.1 00:42:48 65° SSE 00:43:42 75° SSW 00:50:17 10° WNW
GEOS 3 Rocket 3.6 00:49:53 84° E 00:50:00 85° NE 00:55:20 10° NW
ADEOS II 4.4 00:48:50 10° ENE 00:51:17 13° E 00:53:12 11° ESE
Timation 2 Rocket 4.0 00:45:06 10° NNW 00:51:51 87° ENE 00:53:00 63° SE
Meteor 2-16 Rocket 4.5 00:52:36 62° SE 00:53:14 66° E 00:59:17 10° NNE
Nimbus 7 Rocket 4.2 00:48:47 10° NNE 00:54:40 77° ESE 00:55:02 74° SE
Cosmos 2278 3.6 00:54:34 78° WNW 00:54:42 78° WNW 01:00:25 10° NNE
ATLAS 5 CENTAUR R/B 4.3 00:53:02 10° NW 00:55:56 18° N 00:59:11 10° NE
Cosmos 1125 Rocket 4.0 00:51:59 10° NNW 00:56:06 50° WNW 00:56:06 50° WNW
Meteor 2-21 Rocket 4.3 00:57:25 72° SSE 00:58:01 81° E 01:04:15 10° NNE
SL-16 R/B 4.3 00:53:06 10° ESE 00:58:11 28° NE 01:03:18 10° N
Helios 1A Rocket 4.4 01:00:30 31° NNW 01:00:30 31° NNW 01:02:42 10° NNW
Cosmos 1844 Rocket 2.9 00:53:16 10° NW 00:58:03 57° WNW 00:58:03 57° WNW
Cosmos 1980 Rocket 3.4 00:57:35 28° WNW 00:59:15 34° NW 01:04:23 10° NNE
Meteor 2-21 4.3 00:58:50 71° SW 00:59:22 77° WNW 01:05:37 10° N
CZ-2D R/B 3.7 00:58:48 10° NE 01:03:05 24° E 01:04:20 22° ESE
Meteor 1-5 Rocket 4.4 00:57:35 10° N 01:03:19 68° ENE 01:04:15 59° SE
Cosmos 2208 Rocket 4.0 01:09:24 78° ESE 01:09:24 78° ESE 01:14:50 10° NNE
MOZ.5/SAFIR/RUBIN 5/SL-8 3.9 01:12:10 74° NE 01:12:10 74° NE 01:16:40 10° NNW
Cosmos-2242 3.7 01:14:26 50° NNW 01:14:26 50° NNW 01:17:42 10° N
Cosmos 2237 4.2 01:13:16 69° W 01:13:43 73° WNW 01:19:28 10° NNE
Cosmos 1816 Rocket 4.3 01:16:05 67° SW 01:16:47 75° WNW 01:22:56 10° N
Cosmos 2150 Rocket 4.3 01:18:46 10° NNW 01:23:01 53° WNW 01:23:01 53° WNW
USA 238 DEB 3.8 01:16:42 10° NW 01:23:55 66° SW 01:26:01 48° S
USA 238 3.8 01:16:48 10° NW 01:24:02 67° SW 01:26:14 47° S
COSMOS 2428 4.4 01:22:41 20° ESE 01:24:13 22° E 01:28:26 10° NE
Cosmos 2298 Rocket 4.3 01:19:21 10° NNW 01:23:54 54° WNW 01:23:54 54° WNW
Cosmos 489 Rocket 4.4 01:25:32 10° NNW 01:31:53 84° ENE 01:34:06 43° SSE
CZ-2C R/B 3.3 01:31:22 30° SE 01:33:51 53° ENE 01:39:04 10° N
Meteor 2-2 Rocket 4.2 01:33:31 65° SW 01:34:15 74° WNW 01:40:12 10° N
Cosmos 1867 4.1 01:29:29 10° NW 01:34:56 58° NE 01:40:20 10° ESE
Cosmos 836 Rocket 4.4 01:36:30 76° WSW 01:36:53 82° WNW 01:42:12 10° NNE
NPP 4.1 01:33:05 10° NNE 01:38:24 53° E 01:39:31 45° SE
Tsikada Rocket 3.9 01:37:57 60° SSW 01:39:07 79° W 01:45:20 10° N
Cosmos 2221 2.7 01:40:19 63° ENE 01:40:19 63° ENE 01:44:19 10° NNE
Cosmos 2279 Rocket 4.0 01:34:26 10° N 01:40:44 77° E 01:42:58 42° SSE
Cosmos 158 Rocket 3.7 01:40:52 76° W 01:41:00 77° WNW 01:46:00 10° NNE
Cosmos 2333 4.1 01:42:17 61° SSE 01:43:04 70° ESE 01:48:40 10° NE
Resurs 1-4 Rocket 2.7 01:39:26 10° NNE 01:44:37 50° E 01:45:54 41° SE
Lacrosse 5 2.0 01:44:47 58° SE 01:44:47 58° SE 01:49:45 10° ENE
Cosmos 1766 Rocket 3.5 01:40:53 10° N 01:44:56 77° N 01:44:56 77° N
Cosmos 2333 Rocket 2.1 01:46:53 65° SSW 01:47:47 88° ESE 01:53:29 10° NNE
ALOS 4.4 01:44:52 10° NE 01:48:10 19° E 01:50:36 13° SE
Cosmos 44 Rocket 3.9 01:48:57 44° SE 01:49:26 45° ESE 01:54:22 10° NE
USA 215 3.2 01:44:02 10° ENE 01:50:36 83° NNW 01:53:22 38° WSW
Lacrosse 4 Rocket 2.8 01:50:59 27° NW 01:51:16 27° NW 01:54:45 10° NNE
Cosmos 2360 Rocket 2.1 01:51:39 60° WSW 01:52:39 76° WNW 01:58:20 10° NNE
Cosmos 972 Rocket 4.4 01:51:41 46° SSE 01:52:54 56° ESE 01:57:55 10° NNE
Cosmos 1743 3.2 01:51:08 10° N 01:54:05 54° N 01:54:05 54° N
BlueWalker 3 2.6 01:58:05 49° E 01:58:05 49° E 02:01:00 10° E
Aureole 3 Rocket 4.2 01:52:51 10° NNW 01:56:48 33° WNW 01:56:48 33° WNW
Cosmos 2278 Rocket 3.0 01:54:48 10° NNW 02:00:20 50° NE 02:05:51 10° SE
Cosmos 2344 4.1 01:52:26 10° NW 02:00:30 79° NE 02:11:27 10° SE
Cosmos 773 Rocket 3.9 02:00:43 63° SW 02:01:35 84° WNW 02:06:55 10° NNE
IRIDIUM 106 4.4 01:56:49 10° N 02:02:05 76° E 02:03:43 45° SSE
Cosmos 1933 4.5 02:03:10 32° NW 02:03:10 32° NW 02:06:12 10° N
Cosmos 2322 Rocket 2.5 02:01:19 44° W 02:02:39 54° NW 02:08:11 10° NNE
NOSS 3-4 (A) 3.2 02:03:50 54° SSW 02:05:09 76° SE 02:11:18 10° NE
NOSS 3-4 (C) 3.2 02:03:53 54° SSW 02:05:12 76° SE 02:11:21 10° NE
IDEFIX/ARIANE 42P 2.5 02:00:05 10° NNE 02:05:19 85° ESE 02:06:30 55° S
Cosmos 1536 3.7 02:06:02 10° N 02:09:47 45° ENE 02:11:04 32° ESE
Okean 3 Rocket 3.5 02:05:40 10° N 02:10:14 90° NW 02:10:57 64° S
Cosmos 1782 4.5 02:11:03 22° NW 02:11:03 22° NW 02:13:34 10° NNW
Cosmos 2219 Rocket 2.1 02:09:03 52° SSW 02:10:28 83° ESE 02:16:06 10° NNE
MSX 3.8 02:06:18 10° NNE 02:12:07 82° ESE 02:14:09 43° S
Gbstr 26 Del rocket 4.0 02:13:49 30° SE 02:13:49 30° SE 02:16:46 10° E
H-2A R/B 3.5 02:09:44 10° N 02:13:46 61° WNW 02:13:48 61° WNW
ATLAS 3B R/B 4.4 02:09:48 10° NW 02:16:49 37° NNE 02:23:58 10° E
COBE Rocket 3.7 02:13:15 10° NNE 02:17:59 81° ESE 02:19:04 53° S
GP-B 4.2 02:13:59 10° NNE 02:18:12 42° E 02:20:36 22° SE
SL-16 R/B 3.4 02:17:07 25° W 02:19:21 33° NW 02:24:28 10° NNE
Meteor 1-28 Rocket 3.1 02:20:06 71° ESE 02:20:23 77° ENE 02:24:03 10° N
NOSS 2-2 (E) 3.8 02:19:14 10° NW 02:23:25 81° NE 02:29:18 10° SE
BREEZE-M DEB (TANK) 2.8 02:27:07 64° SSW 02:27:18 65° S 02:34:20 10° E
USA 267 4.5 02:30:04 22° W 02:30:04 22° W 02:32:56 10° WNW
Cosmos 1726 2.0 02:24:23 10° N 02:27:30 66° ENE 02:27:30 66° ENE
Okean 1 4.4 02:29:45 26° SE 02:31:14 38° E 02:34:48 10° NNE
ADEOS II 2.1 02:26:31 10° NNE 02:31:48 77° ESE 02:34:06 35° S
FENGYUN 3A 3.8 02:28:58 10° NNE 02:34:25 71° ESE 02:37:10 30° S
Meteor 1-14 Rocket 4.3 02:31:37 10° NNW 02:36:59 53° W 02:38:42 38° SW
Cosmos 1461 2.7 02:33:38 10° NW 02:37:32 80° NE 02:41:21 10° SE
NOSS 2-2 (D) 3.8 02:33:41 10° NW 02:37:48 78° NE 02:43:32 10° SE
ATLAS 5 CENTAUR R/B 3.5 02:36:57 10° NW 02:41:02 34° NNE 02:45:58 10° E
SL-16 R/B 2.4 02:36:39 19° S 02:41:16 74° WSW 02:47:30 10° NNW
Meteor 2-6 Rocket 4.3 02:38:50 36° SSW 02:41:23 71° WNW 02:47:21 10° N
NOSS 2-3 (E) 4.4 02:37:20 10° NW 02:42:46 88° SW 02:50:14 10° SE
RESURS DK-1 3.3 02:41:52 29° SSE 02:43:18 39° ESE 02:47:07 10° NE
CZ-2D R/B 2.2 02:38:14 10° N 02:43:31 64° WNW 02:45:38 36° SW
Cosmos 1151 Rocket 4.5 02:40:50 13° SSE 02:44:07 34° E 02:48:02 10° NNE
Envisat 4.5 02:44:15 10° NNE 02:48:50 33° E 02:53:23 10° SSE
Cosmos 1842 Rocket 3.7 02:50:51 41° SW 02:52:02 55° WNW 02:56:26 10° N
Cosmos 1408 Rocket 3.5 02:48:18 10° NNW 02:52:33 59° W 02:53:56 38° SSW
IRAS Rocket 4.2 02:51:38 10° NNE 02:57:19 82° WNW 03:00:33 27° SSW
Cosmos 1975 4.4 02:54:56 10° N 02:58:29 34° ENE 03:02:01 10° SE
Cosmos 375 4.2 02:55:59 10° NW 02:59:47 78° SW 03:04:18 10° SE
Cosmos 1943 Rocket 2.4 02:55:15 10° NNW 03:00:57 76° ENE 03:06:37 10° SE
Meteor 1-27 Rocket 4.0 02:56:58 17° S 03:01:29 72° E 03:07:10 10° NNE
Cosmos 1340 4.5 02:59:05 10° N 03:02:09 29° ENE 03:05:12 10° SE
COSMOS 2428 2.7 03:04:40 28° SW 03:07:50 78° WNW 03:13:34 10° NNE
Cosmos 1805 Rocket 3.5 03:04:41 10° NNW 03:09:00 66° W 03:11:52 20° S
CZ-4 R/B 4.4 03:04:31 10° NNE 03:09:14 54° E 03:13:29 12° S
Cosmos 1500 Rocket 3.7 03:05:15 10° NNW 03:09:37 54° W 03:12:00 25° SSW
Meteor 1-10 Rocket 4.3 03:06:03 24° SSW 03:09:44 70° WNW 03:15:42 10° N
UNK 3.8 03:07:30 20° S 03:10:32 58° W 03:15:05 10° NNW
Meteor 1-11 Rocket 3.8 03:06:51 10° NNW 03:12:18 53° W 03:16:27 17° SSW
Cosmos 1666 Rocket 4.4 03:08:10 10° N 03:12:34 53° ENE 03:16:54 10° SSE
CZ-2C R/B 3.6 03:12:51 25° WSW 03:14:22 29° W 03:19:02 10° NNW
Cosmos 2237 Rocket 2.7 03:11:13 16° S 03:15:41 58° ESE 03:21:16 10° NE
Cosmos 1980 4.1 03:12:33 17° S 03:16:54 62° ESE 03:22:30 10° NE
AQUA 4.1 03:12:31 10° N 03:17:08 52° WNW 03:19:38 25° SW
CZ-2C R/B 3.3 03:12:32 10° N 03:17:25 52° WNW 03:20:25 24° SW
Cosmos 2221 4.3 03:16:57 16° W 03:17:54 17° WNW 03:20:42 10° NNW
Cosmos 1867 4.1 03:13:24 10° NW 03:18:20 35° WSW 03:23:13 10° S
Cosmos 2369 Rocket 4.1 03:13:46 10° NNW 03:18:49 32° NE 03:23:48 10° ESE
Intercosmos 25 Rocket 3.9 03:16:33 10° N 03:19:47 56° ENE 03:23:59 10° SSE
Cosmos 2322 4.1 03:20:27 23° WSW 03:23:54 53° NW 03:29:31 10° NNE
Resurs 1-4 Rocket 3.1 03:19:35 10° N 03:24:13 31° WNW 03:26:57 20° WSW
Meteor 2-9 Rocket 4.2 03:19:31 10° NNW 03:24:45 55° W 03:30:03 10° S
NOSS 2-2 (C) 3.9 03:20:49 10° NW 03:25:01 55° SW 03:30:52 10° SSE
ALOS 2.3 03:21:14 10° N 03:25:50 64° WNW 03:28:56 20° SSW
Lacrosse 5 2.3 03:23:58 17° W 03:27:48 57° NNW 03:32:51 10° ENE
Cosmos 2195 Rocket 4.5 03:23:06 14° SSW 03:28:37 74° WNW 03:34:54 10° N
DMSP B5D2-2 4.5 03:24:53 10° SSE 03:30:01 67° ENE 03:35:12 10° N
Cosmos 44 Rocket 4.1 03:27:36 19° WSW 03:31:00 45° NW 03:35:57 10° NE
Cosmos 1733 3.2 03:27:41 10° NNW 03:31:11 49° W 03:33:43 17° SSW
Cosmos 2333 Rocket 3.7 03:28:52 13° W 03:32:49 25° NW 03:37:27 10° NNE
USA 215 3.8 03:26:59 10° ENE 03:33:22 57° N 03:39:45 10° W
Nadezhda 4 Rocket 4.4 03:30:19 19° SW 03:34:28 45° WNW 03:40:20 10° N
BlueWalker 3 2.3 03:32:32 16° W 03:35:18 42° SSW 03:38:56 10° SE
Sich 1 3.6 03:31:26 10° NNW 03:35:19 36° W 03:37:58 18° SSW
YAOGAN 6 3.3 03:32:57 10° NNE 03:36:08 46° E 03:39:18 10° S
IRS-1D 4.2 03:32:05 10° NNE 03:37:05 56° ESE 03:42:08 10° S
Cosmos 2360 Rocket 3.9 03:33:23 10° W 03:37:36 22° NW 03:41:56 10° NNE
NOSS 0 Rocket 3.9 03:36:15 17° SW 03:41:12 78° NW 03:47:24 10° NNE
Cosmos 1743 Rocket 4.3 03:39:42 10° NNW 03:43:34 32° W 03:46:31 15° SSW
USA 290 3.7 03:40:40 10° NNW 03:43:37 38° ENE 03:46:31 10° SE
IDEFIX/ARIANE 42P 4.2 03:40:37 10° N 03:44:14 20° NW 03:47:15 12° W
Cosmos 2278 Rocket 2.7 03:39:09 10° NW 03:44:17 36° WSW 03:49:23 10° S
Cosmos 1536 4.3 03:42:46 10° NW 03:45:29 18° W 03:46:20 17° WSW
NOSS 3-1 (C) 4.1 03:39:20 10° NW 03:46:22 84° NE 03:55:04 10° SE
Cosmos 1328 Rocket 4.0 03:42:11 10° S 03:46:32 64° E 03:50:57 10° NNE
Cosmos 1340 Rocket 2.8 03:43:25 10° S 03:47:15 80° ESE 03:51:10 10° NNE
Cosmos 2322 Rocket 4.2 03:44:21 10° WNW 03:48:00 17° NNW 03:51:41 10° NNE
Cosmos 1805 3.2 03:46:27 10° NNW 03:50:06 55° W 03:53:43 10° S
SWAS 4.5 03:46:12 10° NW 03:50:18 52° WSW 03:54:24 10° SSE
Cosmos 1633 Rocket 3.0 03:46:32 10° NNW 03:50:53 82° W 03:55:14 10° S
Cosmos 1680 Rocket 3.6 03:47:17 10° SSW 03:52:36 81° ESE 03:57:56 10° NNE
Cosmos 1553 Rocket 4.0 03:47:25 10° NNW 03:53:45 78° W 03:59:57 10° S
Cosmos 2219 Rocket 3.6 03:50:45 11° W 03:55:05 26° NW 03:59:45 10° NNE
GP-B 4.3 03:51:35 10° NNW 03:55:12 25° WNW 03:57:55 14° WSW
NOSS 3-4 (A) 4.4 03:51:15 10° W 03:56:33 38° NNW 04:02:33 10° NE
NOSS 3-4 (C) 4.4 03:51:18 10° W 03:56:35 39° NNW 04:02:37 10° NE
Cosmos 1420 Rocket 4.1 03:52:16 10° NNW 03:57:24 56° WSW 04:02:32 10° S
Gbstr 26 Del rocket 2.7 03:56:05 14° WSW 03:59:30 80° SSE 04:03:15 10° E
Cosmos 2056 Rocket 3.6 03:55:46 10° NNW 04:01:05 61° WSW 04:06:24 10° S
METEOR-M 4.2 03:56:23 10° N 04:01:42 68° WNW 04:06:58 10° SSW
SL-16 R/B 4.5 04:02:42 10° NW 04:05:20 13° NNW 04:07:59 10° N
EO 1 Delta rocket 4.4 04:01:28 10° N 04:05:57 41° WNW 04:10:16 10° SW
SL-16 R/B 3.2 04:00:46 10° S 04:06:07 46° ESE 04:11:31 10° NE
Cosmos 1452 Rocket 4.3 04:02:57 10° NNW 04:08:10 57° ENE 04:13:19 10° SE
ATLAS 3B R/B 3.4 04:01:06 10° NW 04:08:53 70° NE 04:16:39 10° SE
CZ-2C R/B 2.5 04:04:26 10° NNE 04:09:36 73° WNW 04:14:45 10° SSW
Cosmos 1656 Rocket 3.9 04:04:49 10° NNW 04:10:16 73° ENE 04:15:40 10° SE
PAYLOAD A 3.9 04:05:47 10° NNE 04:10:48 80° WNW 04:15:37 10° SSW
ADEOS II 3.6 04:06:59 10° N 04:10:54 22° NW 04:14:48 10° WSW
Cosmos 1624 Rocket 4.2 04:08:26 10° NNW 04:13:30 49° WSW 04:18:29 10° S
Cosmos 1461 4.3 04:13:09 10° W 04:15:16 14° WSW 04:17:21 10° SSW
Cosmos 1092 Rocket 4.5 04:11:41 10° SW 04:17:26 41° WNW 04:23:15 10° N
Iridium 51 3.8 04:14:37 10° S 04:18:00 85° W 04:21:21 10° N
RESURS DK-1 3.5 04:17:32 10° WSW 04:21:09 30° NW 04:24:48 10° NNE
Cosmos 1151 Rocket 4.0 04:17:52 10° SW 04:21:38 29° WNW 04:25:27 10° N
Meteor 2-12 Rocket 4.4 04:15:43 10° SSW 04:21:46 77° WNW 04:27:52 10° N
CZ-2D R/B 4.1 04:19:52 10° NNW 04:22:35 14° NW 04:25:20 10° W
ATLAS 5 CENTAUR R/B 2.0 04:20:33 10° NW 04:25:19 71° SW 04:31:16 10° SE
SL-16 R/B 4.1 04:22:31 10° WSW 04:25:56 15° W 04:29:22 10° NW
Cosmos 1939 Rocket 4.3 04:23:27 10° NNE 04:27:00 38° E 04:30:32 10° SSE
Envisat 3.5 04:23:08 10° N 04:27:55 42° WNW 04:32:41 10° SW
Cosmos 923 Rocket 4.5 04:23:00 10° SW 04:28:02 46° WNW 04:33:08 10° NNE
Cosmos 1766 3.1 04:26:09 10° NNW 04:29:48 59° W 04:33:26 10° S
